Simultaneous Nadir Overpasses (SNOs) Predictions

Prediction of SNOs between GOES-15 and NPP Satellite Orbit:

Table of predicted SNOs for the next 14.0 days since TLE Epoch: 7/7/2012
Index Date Time (GOES-15) GOES-15 Lat,Lon NPP Lat,Lon Distance(km) Time Diff (sec)
1 07/07/2012 10:23:01 -0.25,-135.33 -0.26,-135.20 15.02 58
2 07/09/2012 22:25:52 0.26,-135.36 0.11,-135.98 70.93 80
3 07/10/2012 22:09:47 0.25,-135.37 1.11,-131.45 446.80 80
4 07/12/2012 10:28:56 -0.28,-135.40 0.03,-136.73 152.51 80
5 07/13/2012 10:12:52 -0.27,-135.40 -0.97,-132.20 364.56 80
6 07/14/2012 22:32:09 0.29,-135.41 -0.19,-137.52 240.84 80
7 07/15/2012 22:16:05 0.29,-135.41 0.81,-132.98 275.96 80
8 07/17/2012 10:35:14 -0.31,-135.42 0.35,-138.27 324.33 80
9 07/18/2012 10:19:11
